Location: Waco, TX
(31.5480°N, 97.1670°W)
Time: 06:36:38
(UTC-05:00)

ISS - Pass Details

Date: 28 September 2022
Orbit: 414 x 417 km, 51.6° (Epoch: 01 October)

Event Time Altitude Azimuth Distance (km) Brightness Sun altitude
Rises 00:33:24 0° 292° (WNW) 2,355 - -58.5°
Reaches altitude 10° 00:36:21 10° 264° (W) 1,487 - -58.8°
Maximum altitude 00:38:00 13° 234° (SW) 1,308 - -58.9°
Drops below altitude 10° 00:39:39 10° 204° (SSW) 1,482 - -59.0°
Sets 00:42:35 0° 176° (S) 2,339 - -59.2°
